Regional Weather Roundup
Issued by NWS

Home | Current Version | Previous Version | Text Only | Print | Product List | Glossary Off
Versions: 1 2 3 4 5 6 7 8 9 10 11 12 13 14 15 16 17 18 19 20 21 22 23 24 25 26 27 28 29 30 31 32 33 34 35 36 37 38 39 40 41 42 43 44 45 46 47 48 49 50

000
ASUS43 KLOT 252010
RWRIL

ILLINOIS REGIONAL WEATHER ROUNDUP
NATIONAL WEATHER SERVICE CHICAGO/ROMEOVILLE IL
300 PM CDT SAT OCT 25 2014

NOTE: "FAIR" INDICATES FEW OR NO CLOUDS BELOW 12,000 FEET WITH NO
SIGNIFICANT WEATHER AND/OR OBSTRUCTIONS TO VISIBILITY.

* THESE STATIONS ARE NOT UNDER NWS QUALITY CONTROL. THEY ALSO MAY NOT
  REPORT WEATHER SUCH AS PRECIPITATION OR FOG.

ILZ001-002-007-009-015-016-024-252100-
NORTHWEST ILLINOIS

CITY           SKY/WX    TMP DP  RH WIND       PRES   REMARKS
MOLINE         SUNNY     72  35  25 NW10      30.00F
STERLING*      SUNNY     72  28  20 NW16G25   29.98S
SAVANNA*       SUNNY     71  30  21 NW9       29.99S
$$

ILZ003-004-008-010-011-017-018-252100-
NORTH CENTRAL ILLINOIS

CITY           SKY/WX    TMP DP  RH WIND       PRES   REMARKS
ROCKFORD       MOSUNNY   70  30  22 NW14G28   29.96F
FREEPORT*      SUNNY     69  34  27 NW15G22   29.98F
ROCHELLE*      SUNNY     72  31  22 NW15G21   29.96F
DE KALB*       SUNNY     69  29  22 NW18G28   29.95F
PERU*          SUNNY     73  36  26 NW16      29.98S
$$

ILZ005-006-012>014-019>023-252100-
NORTHEAST ILLINOIS

CITY           SKY/WX    TMP DP  RH WIND       PRES   REMARKS
CHICAGO-OHARE  MOSUNNY   72  33  24 NW17      29.91F
CHICAGO-MIDWAY MOSUNNY   74  33  22 W16G24    29.91F
AURORA         SUNNY     73  32  22 W15       29.93F
LANSING*       SUNNY     72  38  29 W16G24    29.92S
JOLIET*        SUNNY     73  31  21 W12G20    29.93F
WAUKEGAN       SUNNY     69  31  24 W12G21    29.90R
DUPAGE AIRPORT SUNNY     73  32  22 W20G25    29.93S
KANKAKEE*      SUNNY     73  44  35 W10       29.94F
WHEELING       SUNNY     73  31  21 NW18      29.92F
MORRIS*        SUNNY     74  36  25 W17G23    29.93F
ROMEOVILLE*    SUNNY     74  30  20 W17G24    29.93F
NORTHERLY ISL    N/A     72  31  22 NW16        N/A
$$

LMZ740>746-252100-
SOUTHERN LAKE MICHIGAN

STATION/POSITION SKY/WX   TEMP    WIND        PRES    VSBY  WAVE
                          AIR SEA DIR/SP/G                  HT/PER
                          (F)     (DEG/KT/KT) (MB)    (MI)  (FT/S)
SOUTHERN BUOY              58 54  250/ 10/ 12 1011.8F         1/ 4
WAUKEGAN HARBOR            70     310/ 13/ 22   N/A
HARRISON CRIB              69     290/ 16/ 23   N/A
BURNHAM HARBOR             72     280/  9/ 16   N/A
CALUMET HARBOR             73     290/ 10/ 15 1011.6F
MICHIGAN CITY              61     220/  7/  7   N/A
$$

ILZ025>027-034>036-040-047-049-050-058-095>099-252100-
WEST-CENTRAL ILLINOIS

CITY           SKY/WX    TMP DP  RH WIND       PRES   REMARKS
QUINCY         SUNNY     77  49  37 N9        30.02F
GALESBURG*     SUNNY     72  38  29 NW10      30.01F
MACOMB*        SUNNY     75  37  25 NW10      30.04S
JACKSONVILLE*  SUNNY     80  49  33 N7        30.00F
PITTSFIELD*    SUNNY     80  46  30 NW6       30.02F
$$

ILZ028>032-037-038-041>044-048-051>054-059>061-252100-
CENTRAL ILLINOIS

CITY           SKY/WX    TMP DP  RH WIND       PRES   REMARKS
PONTIAC        SUNNY     74  41  30 W14       29.97F
BLOOMINGTON    SUNNY     74  48  39 NW13      30.00S
DECATUR        SUNNY     78  49  35 NW9       29.99F
PEORIA         SUNNY     78  42  27 NW8       29.99F
LACON*         MOSUNNY   73  36  26 NW13      29.98S
LINCOLN*       SUNNY     77  47  34 NW8       29.97S
SPRINGFIELD    SUNNY     80  48  32 NW9       30.00F
TAYLORVILLE    SUNNY     77  46  33 NW13      30.00S
$$

ILZ033-039-045-046-055>057-062-063-252100-
EAST-CENTRAL ILLINOIS

CITY           SKY/WX    TMP DP  RH WIND       PRES   REMARKS
CHAMPAIGN      SUNNY     77  47  34 NW15      29.97S
DANVILLE*      SUNNY     76  47  35 NW12G18   29.93S
RANTOUL*       SUNNY     78  46  31 NW12G17   29.97S
MATTOON        SUNNY     77  50  38 NW12      29.98S
PARIS*         SUNNY     79  49  35 W10       29.97S
$$

ILZ079-100>102-252100-
SOUTHWEST ILLINOIS

CITY           SKY/WX    TMP DP  RH WIND       PRES   REMARKS
BELLEVILLE     HAZE      79  57  47 VRB5      30.00S VSB 3/4 HX  80
CAHOKIA*       SUNNY     81  56  42 N5        30.00F HX  81
SPARTA*        SUNNY     78  59  51 NW3       30.01F
$$

ILZ064>066-069>071-074>076-080>082-084>086-088>090-092>094-252100-
SOUTH-CENTRAL ILLINOIS

CITY           SKY/WX    TMP DP  RH WIND       PRES   REMARKS
CARBONDALE     SUNNY     81  54  39 VRB5      30.00F HX  81
CAIRO*         SUNNY     82  62  50 W7        30.00S HX  82
EFFINGHAM*     SUNNY     79  48  33 W7        29.99F
MARION         SUNNY     81  57  44 NW8       30.01F HX  81
MT. VERNON     SUNNY     79  55  44 NW5       30.00S
CENTRALIA*     SUNNY     77  49  36 NW5       30.00S
SALEM*         SUNNY     80  54  40 NW7       30.00S HX  80
METROPOLIS*    SUNNY     78  63  58 W6        29.99F HX  80
$$

ILZ067-068-072-073-078-083-087-091-252100-
SOUTHEAST ILLINOIS

CITY           SKY/WX    TMP DP  RH WIND       PRES   REMARKS
LAWRENCEVILLE  HAZE      79  54  41 W7        29.98S VSB 1/2
FLORA*         SUNNY     78  52  40 NW7       30.00R
FAIRFIELD*     SUNNY     79  54  41 NW3       29.98S HX  80
HARRISBURG*    SUNNY     79  57  47 W5        29.99F HX  80
ROBINSON*      SUNNY     82  52  36 NW10      29.98S HX  81
CARMI*         SUNNY     82  53  37 NW5       29.97F HX  81
$$

ABBREVIATIONS USED IN REMARKS
   TC - TEMPERATURE IN CELSIUS
  WCI - WIND CHILL INDEX
   HX - HEAT INDEX
  VSB - VISIBILITY
$$




USA.gov is the U.S. government's official web portal to all federal, state and local government web resources and services.